Location: Essen
(51.4609°N, 7.0127°E)
Time: 14:55:01
(UTC+02:00)

ISS - Pass Details

Date: 04 January 2018
Orbit: 402 x 408 km, 51.6° (Epoch: 20 July)

Event Time Altitude Azimuth Distance (km) Brightness Sun altitude
Exits shadow 05:29:30 21° 89° (E) 1,005 -1.1 -27.9°
Drops below altitude 10° 05:30:48 10° 81° (E) 1,501 0.0 -27.7°
Enters shadow 06:27:04 -68° 261° (W) 12,287 3.6 -19.1°
Maximum altitude 07:04:07 85° 358° (N) 426 -3.8 -13.5°
